Location: Unspecified
(51.6250°N, 0.8230°E)
Time: 12:12:23
(UTC+00:00)

ISS - Pass Details

Date: 29 January 2021
Orbit: 417 x 422 km, 51.6° (Epoch: 06 March)

Event Time Altitude Azimuth Distance (km) Brightness Sun altitude
Rises 18:35:36 0° 278° (W) 2,376 1.6 -17.7°
Reaches altitude 10° 18:37:42 10° 277° (W) 1,511 0.3 -18.1°
Maximum altitude 18:41:06 82° 191° (SSW) 433 -3.8 -18.6°
Enters shadow 18:41:33 63° 118° (ESE) 475 -3.8 -18.7°
